Regional Weather Roundup
Issued by NWS

Home | Current Version | Previous Version | Graphics & Text | Print | Product List | Glossary On
Versions: 1 2 3 4 5 6 7 8 9 10 11 12 13 14 15 16 17 18 19 20 21 22 23 24 25 26 27 28 29 30 31 32 33 34 35 36 37 38 39 40 41 42 43 44 45 46 47 48 49 50
573
ASUS44 KJAN 231510
RWRMS

MISSISSIPPI HOURLY WEATHER ROUNDUP
NATIONAL WEATHER SERVICE JACKSON MS
1000 AM CDT WED APR 23 2014

NOTE: "FAIR: INDICATES FEW OR NO CLOUDS BELOW 12,000 FEET WITH NO
SIGNIFICANT WEATHER AND/OR OBSTRUCTIONS TO VISIBILITY.

MSZ001>002-007>008-010>013-018>021-025>028-034>036-231600-
NORTHWEST MISSISSIPPI

CITY           SKY/WX    TMP DP  RH WIND       PRES   REMARKS
CLARKSDALE       N/A     66  43  42 E10       30.07S
CLEVELAND      FAIR      66  50  56 NE9       30.04R
GREENWOOD      SUNNY     68  47  46 E9        30.03S
GREENVILLE     SUNNY     68  50  52 E8        30.03S
GRENADA        FAIR      64  45  48 E9        30.06R
OLIVE BRANCH   MOSUNNY   64  41  42 E8        30.07R
OXFORD         FAIR      64  37  36 E12       30.07S
TUNICA         SUNNY     66  41  39 NE7       30.06S
$$

MSZ003>006-009-014>017-022>024-029>033-037>039-231600-
NORTHEAST MISSISSIPPI

CITY           SKY/WX    TMP DP  RH WIND       PRES   REMARKS
BELMONT        FAIR      64  40  42 NE10      30.05S
COLUMBUS AFB   SUNNY     67  45  44 NE12      30.04R
CORINTH        FAIR      64  37  36 NE12      30.06R
GOLDN TRIANGLE SUNNY     66  46  48 NE9       30.06R
STARKVILLE     FAIR      64  46  52 NE7       30.04R
TUPELO         SUNNY     66  39  37 E10       30.05R
$$

MSZ040-058-231600-
CENTRAL MISSISSIPPI

CITY           SKY/WX    TMP DP  RH WIND       PRES   REMARKS
JACKSON INTL   SUNNY     71  52  50 CALM      30.01R
JACKSON HAWKNS SUNNY     72  50  45 CALM      30.02R
MERIDIAN KEY   SUNNY     69  54  58 NE7       30.01R
MERIDIAN NAS   SUNNY     68  54  60 N8        30.01S
RAYMOND        FAIR      72  66  83 CALM      30.02R
VICKSBURG      SUNNY     72  51  47 E5        30.02R
$$

MSZ059>079-231600-
SOUTH MISSISSIPPI

CITY           SKY/WX    TMP DP  RH WIND       PRES   REMARKS
BROOKHAVEN     FAIR      70  55  60 N5        30.03R
HATTIESBURG    SUNNY     72  58  61 CALM      30.01R
MCCOMB         SUNNY     73  56  54 VRB3      30.00R
NATCHEZ        SUNNY     72  55  56 NE5       30.01S
PINE BELT      SUNNY     72  55  56 E3        30.01S
$$

MSZ080>082-231600-
COASTAL MISSISSIPPI

CITY           SKY/WX    TMP DP  RH WIND       PRES   REMARKS
BAY ST LOUIS   SUNNY     68  57  68 E3        29.98S
BILOXI         SUNNY     72  65  77 N2        29.98R
PASCAGOULA     SUNNY     74  64  71 NE5       29.98R
GULFPORT       SUNNY     77  63  61 NE5       29.97S
$$



USA.gov is the U.S. government's official web portal to all federal, state and local government web resources and services.